Previsão horária em Ploske

Hoje, 4 Março, Quinta-feira

Tempo Temperatura Precipitação Vento Pressão Humidade
00:00 -2°C° 0 mm 3 m/s 756 mmHg 85%
01:00 -2°C° 0 mm 3 m/s 756 mmHg 84%
02:00 -3°C° 0 mm 4 m/s 756 mmHg 84%
03:00 -3°C° 0 mm 4 m/s 755 mmHg 83%
04:00 -3°C° 0 mm 4 m/s 754 mmHg 82%
05:00 -2°C° 0 mm 5 m/s 754 mmHg 81%
06:00 -2°C° 0 mm 5 m/s 753 mmHg 81%
07:00 -1°C° 0 mm 5 m/s 753 mmHg 80%
08:00 -2°C° 0 mm 6 m/s 752 mmHg 80%
09:00 +1°C° 0 mm 6 m/s 751 mmHg 80%
10:00 +2°C° 0 mm 6 m/s 751 mmHg 80%
11:00 +3°C° 0 mm 7 m/s 750 mmHg 80%
12:00 +4°C° 0 mm 7 m/s 749 mmHg 78%
13:00 +5°C° 0 mm 7 m/s 749 mmHg 77%
14:00 +6°C° 0 mm 7 m/s 748 mmHg 75%
15:00 +5°C° 0 mm 6 m/s 747 mmHg 77%
16:00 +5°C° 0 mm 6 m/s 747 mmHg 78%
17:00 +5°C° 0 mm 5 m/s 746 mmHg 80%
18:00 +5°C° 0 mm 5 m/s 746 mmHg 80%
19:00 +3°C° 0 mm 5 m/s 746 mmHg 79%
20:00 +3°C° 0 mm 5 m/s 746 mmHg 79%
21:00 +3°C° 0 mm 5 m/s 746 mmHg 80%
22:00 +3°C° 0 mm 5 m/s 746 mmHg 81%
23:00 +4°C° 0 mm 4 m/s 746 mmHg 82%

Amanhã, 5 Março, Sexta-feira

Tempo Temperatura Precipitação Vento Pressão Humidade
00:00 +3°C° 0 mm 4 m/s 746 mmHg 84%
01:00 +1°C° 0 mm 4 m/s 747 mmHg 86%
02:00 +1°C° 0 mm 3 m/s 747 mmHg 88%
03:00 +1°C° 0 mm 3 m/s 747 mmHg 88%
04:00 +1°C° 0 mm 3 m/s 747 mmHg 89%
05:00 +1°C° 0 mm 3 m/s 746 mmHg 89%
06:00 +2°C° 0.1 mm 3 m/s 746 mmHg 90%
07:00 +2°C° 0.1 mm 3 m/s 746 mmHg 91%
08:00 +2°C° 0.1 mm 3 m/s 746 mmHg 92%
09:00 +3°C° 0.5 mm 2 m/s 746 mmHg 94%
10:00 +3°C° 0.5 mm 2 m/s 746 mmHg 95%
11:00 +3°C° 0.5 mm 2 m/s 746 mmHg 97%
12:00 +3°C° 0.6 mm 2 m/s 746 mmHg 97%
13:00 +3°C° 0.6 mm 2 m/s 746 mmHg 97%
14:00 +2°C° 0.6 mm 3 m/s 746 mmHg 97%
15:00 +2°C° 0.3 mm 3 m/s 746 mmHg 97%
16:00 +1°C° 0.3 mm 4 m/s 746 mmHg 96%
17:00 0°C° 0.3 mm 5 m/s 747 mmHg 96%
18:00 0°C° 0 mm 5 m/s 748 mmHg 95%
19:00 0°C° 0 mm 5 m/s 748 mmHg 94%
20:00 -1°C° 0 mm 5 m/s 749 mmHg 93%
21:00 -1°C° 0 mm 4 m/s 750 mmHg 91%
22:00 -2°C° 0 mm 4 m/s 750 mmHg 90%
23:00 -2°C° 0 mm 3 m/s 751 mmHg 89%

Depois de amanhã, 6 Março, Sábado

Tempo Temperatura Precipitação Vento Pressão Humidade
00:00 -2°C° 0 mm 3 m/s 751 mmHg 88%
01:00 -2°C° 0 mm 3 m/s 752 mmHg 87%
02:00 -2°C° 0 mm 3 m/s 752 mmHg 87%
03:00 -4°C° 0 mm 3 m/s 752 mmHg 83%
04:00 -4°C° 0 mm 4 m/s 753 mmHg 80%
05:00 -4°C° 0 mm 4 m/s 753 mmHg 77%
06:00 -5°C° 0 mm 5 m/s 753 mmHg 71%
07:00 -5°C° 0 mm 6 m/s 754 mmHg 65%
08:00 -6°C° 0 mm 7 m/s 754 mmHg 60%
09:00 -4°C° 0 mm 7 m/s 755 mmHg 52%
10:00 -3°C° 0 mm 7 m/s 755 mmHg 45%
11:00 -3°C° 0 mm 7 m/s 755 mmHg 37%
12:00 -3°C° 0 mm 7 m/s 755 mmHg 38%
13:00 -2°C° 0 mm 7 m/s 755 mmHg 39%
14:00 -2°C° 0 mm 8 m/s 756 mmHg 40%
15:00 -3°C° 0 mm 7 m/s 756 mmHg 41%
16:00 -3°C° 0 mm 6 m/s 756 mmHg 43%
17:00 -4°C° 0 mm 5 m/s 756 mmHg 44%
18:00 -3°C° 0 mm 4 m/s 757 mmHg 48%
19:00 -4°C° 0 mm 3 m/s 757 mmHg 51%
20:00 -3°C° 0 mm 2 m/s 757 mmHg 55%
21:00 -3°C° 0 mm 2 m/s 758 mmHg 55%
22:00 -3°C° 0 mm 2 m/s 758 mmHg 55%
23:00 -4°C° 0 mm 2 m/s 758 mmHg 55%

7 Março, Domingo

Tempo Temperatura Precipitação Vento Pressão Humidade
00:00 -5°C° 0 mm 3 m/s 758 mmHg 55%
01:00 -4°C° 0 mm 3 m/s 758 mmHg 55%
02:00 -4°C° 0 mm 3 m/s 758 mmHg 55%
03:00 -4°C° 0 mm 3 m/s 757 mmHg 56%
04:00 -4°C° 0 mm 4 m/s 757 mmHg 57%
05:00 -4°C° 0 mm 4 m/s 757 mmHg 59%
06:00 -5°C° 0 mm 5 m/s 756 mmHg 56%
07:00 -4°C° 0 mm 6 m/s 756 mmHg 54%
08:00 -4°C° 0 mm 7 m/s 756 mmHg 52%
09:00 -3°C° 0 mm 7 m/s 755 mmHg 49%
10:00 -2°C° 0 mm 8 m/s 754 mmHg 45%
11:00 -1°C° 0 mm 9 m/s 754 mmHg 41%
12:00 0°C° 0 mm 9 m/s 753 mmHg 40%
13:00 +1°C° 0 mm 9 m/s 752 mmHg 40%
14:00 +1°C° 0 mm 9 m/s 752 mmHg 39%
15:00 +1°C° 0 mm 8 m/s 751 mmHg 42%
16:00 0°C° 0 mm 8 m/s 750 mmHg 46%
17:00 0°C° 0 mm 7 m/s 750 mmHg 49%
18:00 -1°C° 0 mm 7 m/s 750 mmHg 52%
19:00 -1°C° 0 mm 7 m/s 750 mmHg 55%
20:00 -2°C° 0 mm 7 m/s 749 mmHg 57%
21:00 -2°C° 0 mm 7 m/s 749 mmHg 59%
22:00 -2°C° 0 mm 6 m/s 749 mmHg 61%
23:00 -3°C° 0 mm 6 m/s 749 mmHg 62%

8 Março, Segunda-feira

Tempo Temperatura Precipitação Vento Pressão Humidade
00:00 -3°C° 0 mm 6 m/s 749 mmHg 66%
01:00 -2°C° 0 mm 5 m/s 749 mmHg 69%
02:00 -2°C° 0 mm 5 m/s 749 mmHg 73%
03:00 -2°C° 0 mm 5 m/s 749 mmHg 77%
04:00 -4°C° 0 mm 5 m/s 748 mmHg 81%
05:00 -4°C° 0 mm 5 m/s 748 mmHg 85%
06:00 -4°C° 0 mm 5 m/s 749 mmHg 84%
07:00 -2°C° 0 mm 5 m/s 749 mmHg 83%
08:00 -2°C° 0 mm 5 m/s 749 mmHg 81%
09:00 -2°C° 0.1 mm 5 m/s 749 mmHg 78%
10:00 -1°C° 0.1 mm 5 m/s 749 mmHg 74%
11:00 0°C° 0.1 mm 5 m/s 749 mmHg 70%
12:00 0°C° 0 mm 5 m/s 749 mmHg 62%
13:00 0°C° 0 mm 5 m/s 749 mmHg 55%
14:00 +1°C° 0 mm 6 m/s 749 mmHg 48%
15:00 0°C° 0 mm 5 m/s 749 mmHg 50%
16:00 0°C° 0 mm 5 m/s 749 mmHg 53%
17:00 -1°C° 0 mm 4 m/s 750 mmHg 55%
18:00 -2°C° 0 mm 4 m/s 750 mmHg 60%
19:00 -2°C° 0 mm 3 m/s 751 mmHg 65%
20:00 -4°C° 0 mm 3 m/s 751 mmHg 69%
21:00 -4°C° 0 mm 3 m/s 751 mmHg 70%
22:00 -4°C° 0 mm 3 m/s 752 mmHg 71%
23:00 -5°C° 0 mm 3 m/s 752 mmHg 72%

9 Março, Terça-feira

Tempo Temperatura Precipitação Vento Pressão Humidade
00:00 -5°C° 0 mm 3 m/s 753 mmHg 71%
01:00 -5°C° 0 mm 4 m/s 753 mmHg 70%
02:00 -5°C° 0 mm 4 m/s 753 mmHg 69%
03:00 -7°C° 0 mm 5 m/s 754 mmHg 66%
04:00 -7°C° 0 mm 5 m/s 754 mmHg 64%
05:00 -7°C° 0 mm 5 m/s 754 mmHg 62%
06:00 -7°C° 0 mm 5 m/s 755 mmHg 58%
07:00 -8°C° 0 mm 6 m/s 755 mmHg 54%
08:00 -8°C° 0 mm 6 m/s 756 mmHg 50%
09:00 -8°C° 0 mm 6 m/s 756 mmHg 48%
10:00 -6°C° 0 mm 5 m/s 757 mmHg 45%
11:00 -6°C° 0 mm 5 m/s 757 mmHg 42%
12:00 -5°C° 0 mm 5 m/s 757 mmHg 40%
13:00 -5°C° 0 mm 5 m/s 757 mmHg 38%
14:00 -5°C° 0 mm 5 m/s 758 mmHg 36%
15:00 -4°C° 0 mm 4 m/s 758 mmHg 36%
16:00 -4°C° 0 mm 4 m/s 758 mmHg 37%
17:00 -5°C° 0 mm 4 m/s 758 mmHg 38%
18:00 -5°C° 0 mm 4 m/s 758 mmHg 41%
19:00 -6°C° 0 mm 3 m/s 759 mmHg 44%
20:00 -6°C° 0 mm 3 m/s 759 mmHg 48%
21:00 -6°C° 0 mm 3 m/s 760 mmHg 47%
22:00 -6°C° 0 mm 3 m/s 760 mmHg 46%
23:00 -7°C° 0 mm 3 m/s 760 mmHg 45%
Mostrar mais

Necessitamos do seu Consentimento

A Meteoprog e os seus Fornecedores de Serviços podem armazenar e aceder a dados pessoais como cookies, identificadores do dispositivo ou outras tecnologias semelhantes existentes no seu dispositivo e processar estes dados para personalizar conteúdos e anúncios, assim como funcionalidades nas redes sociais e análise de tráfego.

  • Armazenar e/ou aceder a informações no seu dispositivo

    Os cookies, identificadores do dispositivo ou outras informações podem ser armazenados ou acedidos no seu dispositivo, para os fins acima indicados.

  • Anúncios e conteúdos personalizados, medição de anúncios e conteúdos, dados sobre o público-alvo e desenvolvimento de produtos

    Os anúncios e os conteúdos podem ser personalizados com base num perfil. Podem ser adicionados dados adicionais para uma maior personalização dos anúncios e dos conteúdos. A eficácia dos anúncios e dos conteúdos pode ser medida. Podem ser obtidas informações sobre o público que visualizou os anúncios e os conteúdos. Estes dados podem ser usados para desenvolver ou melhorar sistemas, softwares ou a experiência do utilizador.

Ao clicar em "Eu concordo”, permitirá o uso de cookies, identificadores do dispositivo e web beacons mencionados ou outras tecnologias semelhantes. As configurações do navegador do seu dispositivo podem ser alteradas.

Para certos fins, podem ser invocados interesses legítimos ao invés de consentimento. Pode ler mais informação sobre este assunto na nossa Política de Privacidade e Cookies.